Overview Statistics Trail Chart Weather Telemetry Raw packets
 

This is the latest recevied weather packets stored in our database for station/object HP3ICC-22. If no packets are shown the sender has not sent any weather packets the latest 10 day(s).

<< 20 21 22 23 24 25 26 >>
Time Temp. Humidity Pressure Rain* Wind** Luminosity Snow
1777401568 13.89° C 70% 1012 hPa 0 mm - - -
1777401508 13.89° C 70% 1012 hPa 0 mm - - -
1777400367 13.89° C 68% 1012 hPa 0 mm - - -
1777400307 13.89° C 68% 1012 hPa 0 mm - - -
1777399167 13.33° C 70% 1013 hPa 0 mm - - -
1777399107 13.33° C 70% 1013 hPa 0 mm - - -
1777397966 13.89° C 70% 1013 hPa 0 mm - - -
1777397906 13.89° C 70% 1013 hPa 0 mm - - -
1777396766 12.78° C 69% 1013 hPa 0 mm - - -
1777396705 12.78° C 69% 1013 hPa 0 mm - - -
1777395565 11.67° C 74% 1015 hPa 0 mm - - -
1777395505 11.67° C 74% 1015 hPa 0 mm - - -
1777394364 11.67° C 74% 1015 hPa 0 mm - - -
1777394304 11.67° C 74% 1015 hPa 0 mm - - -
1777393164 11.67° C 74% 1014 hPa 0 mm - - -
1777393104 11.67° C 74% 1014 hPa 0 mm - - -
1777391963 11.67° C 79% 1015 hPa 0 mm - - -
1777391903 11.67° C 79% 1015 hPa 0 mm - - -
1777390763 11.11° C 79% 1015 hPa 0 mm - - -
1777390703 11.11° C 79% 1015 hPa 0 mm - - -
1777389562 12.78° C 77% 1014 hPa 0 mm - - -
1777389502 12.78° C 77% 1014 hPa 0 mm - - -
1777388362 12.22° C 82% 1016 hPa 0 mm - - -
1777388301 12.22° C 82% 1016 hPa 0 mm - - -
1777387161 12.22° C 85% 1016 hPa 0 mm - - -

* Rain latest hour (hover to see other rain measurements)
** Current wind speed in m/s (hover to see current wind gust speed)